Orange, MA

2:25 PM EDT on September 21, 2019 (GMT -0400)
Orange Municipal

Weather History for KORE - August, 2019

Change the Weather History Date:

Tuesday, August 20, 2019

  Actual Average Record
Temperature  
Mean Temperature 73 °F -  
Max Temperature 86 °F 78 °F 87 °F (2003)
Min Temperature 60 °F 54 °F 43 °F (1998)
Cooling Degree Days 8    
Growing Degree Days 23 (Base 50)    
Moisture  
Dew Point 59 °F    
Average Humidity 74    
Maximum Humidity 93    
Minimum Humidity 27    
Precipitation  
Precipitation 0.00 in - - ()
Sea Level Pressure  
Sea Level Pressure 30.07 in    
Wind  
Wind Speed 2 mph ()    
Max Wind Speed 13 mph    
Max Gust Speed -    
Visibility 6.8 miles    
Events Fog    
Averages and records for this station are not official NWS values.
T = Trace of Precipitation, MM = Missing Value Source: Averaged Metar Reports

Daily Weather History Graph

Daily Weather History Graph

Search for Another Location

Airport or City:

Astronomy

Aug. 20, 2019 Rise Set
Actual Time 6:01 AM EDT 7:43 PM EDT
Civil Twilight 5:31 AM EDT 8:13 PM EDT
Nautical Twilight 4:54 AM EDT 8:49 PM EDT
Astronomical Twilight 4:15 AM EDT 9:28 PM EDT
Moon 10:24 PM EDT (8/20) 10:41 AM EDT (8/20)
Length of Visible Light 14h 42m
Length of Day
13h 42m
Waning Gibbous, 78% of the Moon is Illuminated
Aug 20
Waning Gibbous
Aug 23
Last Quarter
Aug 30
New
Sep 5
First Quarter
Sep 14
Full

Hourly Weather History & Observations

Time (EDT) Temp. Heat Index Dew Point Humidity Pressure Visibility Wind Dir Wind Speed Gust Speed Precip Events Conditions
12:52 AM 66.9 °F - 64.0 °F 90% 30.01 in 10.0 mi North 3.5 mph - N/A   Clear
1:52 AM 66.9 °F - 64.9 °F 93% 30.02 in 9.0 mi East 3.5 mph - N/A   Clear
2:52 AM 66.0 °F - 63.0 °F 90% 30.03 in 9.0 mi Calm Calm - N/A   Clear
3:09 AM 64.0 °F - 62.1 °F 93% 30.03 in 1.5 mi Calm Calm - N/A   Clear
3:16 AM 64.9 °F - 62.1 °F 90% 30.03 in 1.0 mi Calm Calm - N/A   Clear
3:18 AM 64.0 °F - 62.1 °F 93% 30.03 in 1.5 mi Calm Calm - N/A   Clear
3:20 AM 64.0 °F - 62.1 °F 93% 30.03 in 3.0 mi Calm Calm - N/A   Clear
3:52 AM 64.0 °F - 62.1 °F 93% 30.04 in 9.0 mi SSW 4.6 mph - N/A   Clear
4:52 AM 63.0 °F - 60.1 °F 90% 30.05 in 8.0 mi NNE 3.5 mph - N/A   Partly Cloudy
5:04 AM 63.0 °F - 61.0 °F 93% 30.06 in 1.2 mi Calm Calm - N/A   Partly Cloudy
5:06 AM 62.1 °F - 60.1 °F 93% 30.06 in 0.8 mi Calm Calm - N/A   Mist
5:17 AM 62.1 °F - 60.1 °F 93% 30.07 in 1.5 mi Calm Calm - N/A   Partly Cloudy
5:22 AM 62.1 °F - 60.1 °F 93% 30.07 in 3.0 mi Calm Calm - N/A   Partly Cloudy
5:31 AM 61.0 °F - 59.0 °F 93% 30.07 in 1.2 mi Calm Calm - N/A   Scattered Clouds
5:33 AM 61.0 °F - 59.0 °F 93% 30.07 in 0.8 mi Calm Calm - N/A   Mist
5:52 AM 61.0 °F - 59.0 °F 93% 30.08 in 0.5 mi Calm Calm - N/A Fog Fog
6:36 AM 60.1 °F - 57.9 °F 93% 30.10 in 1.5 mi Calm Calm - N/A   Partly Cloudy
6:38 AM 60.1 °F - 57.9 °F 93% 30.10 in 4.0 mi Calm Calm - N/A   Partly Cloudy
6:52 AM 61.0 °F - 59.0 °F 93% 30.10 in 9.0 mi Calm Calm - N/A   Clear
7:52 AM 66.0 °F - 60.1 °F 81% 30.12 in 10.0 mi SW 3.5 mph - N/A   Clear
8:52 AM 72.0 °F - 60.1 °F 66% 30.12 in 10.0 mi Calm Calm - N/A   Clear
9:52 AM 75.9 °F - 55.0 °F 48% 30.12 in 10.0 mi Calm Calm - N/A   Clear
10:52 AM 79.0 °F - 55.9 °F 45% 30.12 in 10.0 mi Calm Calm - N/A   Clear
11:52 AM 82.9 °F 81.8 °F 53.1 °F 36% 30.10 in 10.0 mi Variable 3.5 mph - N/A   Clear
12:52 PM 82.9 °F - 48.9 °F 31% 30.09 in 10.0 mi Variable 3.5 mph - N/A   Clear
1:52 PM 84.9 °F - 52.0 °F 32% 30.08 in 10.0 mi Variable 6.9 mph - N/A   Clear
2:52 PM 84.9 °F 83.2 °F 53.1 °F 33% 30.07 in 10.0 mi SSW 12.7 mph - N/A   Clear
3:52 PM 86.0 °F - 48.0 °F 27% 30.07 in 10.0 mi SSW 6.9 mph - N/A   Clear
4:52 PM 86.0 °F - 51.1 °F 30% 30.07 in 10.0 mi West 5.8 mph - N/A   Clear
5:52 PM 84.9 °F 83.6 °F 55.0 °F 36% 30.06 in 10.0 mi SSW 10.4 mph - N/A   Clear
6:52 PM 80.1 °F 80.6 °F 57.9 °F 47% 30.05 in 10.0 mi SSW 4.6 mph - N/A   Clear
7:52 PM 73.0 °F - 61.0 °F 66% 30.05 in 10.0 mi Calm Calm - N/A   Clear
8:52 PM 69.1 °F - 62.1 °F 78% 30.06 in 10.0 mi Calm Calm - N/A   Clear
9:52 PM 68.0 °F - 62.1 °F 81% 30.07 in 10.0 mi Calm Calm - N/A   Clear
10:52 PM 66.0 °F - 62.1 °F 87% 30.07 in 10.0 mi Calm Calm - N/A   Clear
11:52 PM 64.9 °F - 61.0 °F 87% 30.06 in 10.0 mi Calm Calm - N/A   Clear